• Em Portugal
  • Lista de países
  • Para 7 dias
  • Temperatura da água
  • Mapas de satélite
  • Mapa do tempo
  • Widgets de tempo
  • user-avatar
    Iniciar Sessão

    Previsão horária em Belize

    Hoje, 16 Julho, Segunda-feira

    Tempo Temperatura Precipitação Vento Pressão Humidade
    00:00 +27°C° 0,3 mm 3 m/s 761 mmHg 95%
    01:00 +27°C° 0,5 mm 3 m/s 761 mmHg 95%
    02:00 +26°C° 0,5 mm 3 m/s 761 mmHg 96%
    03:00 +26°C° 0,5 mm 3 m/s 760 mmHg 96%
    04:00 +26°C° 0,5 mm 3 m/s 760 mmHg 96%
    05:00 +26°C° 0,5 mm 3 m/s 760 mmHg 96%
    06:00 +26°C° 0,5 mm 2 m/s 760 mmHg 96%
    07:00 +28°C° 1,2 mm 3 m/s 761 mmHg 91%
    08:00 +29°C° 1,2 mm 3 m/s 761 mmHg 85%
    09:00 +30°C° 1,2 mm 3 m/s 762 mmHg 80%
    10:00 +31°C° 0,9 mm 3 m/s 762 mmHg 75%
    11:00 +33°C° 0,9 mm 3 m/s 762 mmHg 71%
    12:00 +33°C° 0,9 mm 4 m/s 762 mmHg 67%
    13:00 +34°C° 0,4 mm 4 m/s 761 mmHg 65%
    14:00 +34°C° 0,4 mm 4 m/s 761 mmHg 63%
    15:00 +34°C° 0,4 mm 4 m/s 760 mmHg 62%
    16:00 +33°C° 0,1 mm 4 m/s 760 mmHg 68%
    17:00 +32°C° 0,1 mm 4 m/s 760 mmHg 74%
    18:00 +30°C° 0,1 mm 4 m/s 760 mmHg 81%
    19:00 +29°C° 0,1 mm 4 m/s 761 mmHg 86%
    20:00 +28°C° 0,1 mm 5 m/s 761 mmHg 92%
    21:00 +27°C° 0,1 mm 5 m/s 761 mmHg 97%
    22:00 +27°C° 0,2 mm 5 m/s 761 mmHg 97%
    23:00 +27°C° 0,2 mm 4 m/s 761 mmHg 98%

    Amanhã, 17 Julho, Terça-feira

    Tempo Temperatura Precipitação Vento Pressão Humidade
    00:00 +27°C° 0,2 mm 4 m/s 762 mmHg 98%
    01:00 +27°C° 0,3 mm 4 m/s 761 mmHg 98%
    02:00 +27°C° 0,3 mm 4 m/s 761 mmHg 98%
    03:00 +27°C° 0,3 mm 4 m/s 761 mmHg 99%
    04:00 +27°C° 0,1 mm 4 m/s 761 mmHg 98%
    05:00 +27°C° 0,1 mm 4 m/s 761 mmHg 98%
    06:00 +27°C° 0,1 mm 4 m/s 761 mmHg 98%
    07:00 +28°C° 0,2 mm 4 m/s 761 mmHg 94%
    08:00 +29°C° 0,2 mm 4 m/s 762 mmHg 91%
    09:00 +30°C° 0,2 mm 4 m/s 762 mmHg 87%
    10:00 +32°C° 0,6 mm 4 m/s 762 mmHg 84%
    11:00 +32°C° 0,6 mm 4 m/s 762 mmHg 81%
    12:00 +33°C° 0,6 mm 4 m/s 762 mmHg 77%
    13:00 +33°C° 0,5 mm 4 m/s 761 mmHg 75%
    14:00 +33°C° 0,5 mm 4 m/s 761 mmHg 74%
    15:00 +33°C° 0,5 mm 4 m/s 761 mmHg 72%
    16:00 +32°C° 0,1 mm 4 m/s 761 mmHg 76%
    17:00 +30°C° 0,1 mm 4 m/s 760 mmHg 81%
    18:00 +29°C° 0,1 mm 4 m/s 760 mmHg 86%
    19:00 +28°C° 0,1 mm 4 m/s 761 mmHg 89%
    20:00 +28°C° 0,1 mm 4 m/s 761 mmHg 93%
    21:00 +27°C° 0,1 mm 4 m/s 762 mmHg 96%
    22:00 +27°C° 0,1 mm 4 m/s 762 mmHg 97%
    23:00 +27°C° 0,1 mm 4 m/s 762 mmHg 97%

    Depois de amanhã, 18 Julho, Quarta-feira

    Tempo Temperatura Precipitação Vento Pressão Humidade
    00:00 +27°C° 0,1 mm 4 m/s 761 mmHg 98%
    01:00 +26°C° 0,6 mm 4 m/s 761 mmHg 98%
    02:00 +26°C° 0,6 mm 4 m/s 761 mmHg 98%
    03:00 +26°C° 0,6 mm 4 m/s 760 mmHg 98%
    04:00 +26°C° 1,2 mm 4 m/s 760 mmHg 98%
    05:00 +26°C° 1,2 mm 4 m/s 760 mmHg 98%
    06:00 +26°C° 1,2 mm 4 m/s 761 mmHg 98%
    07:00 +27°C° 1,2 mm 4 m/s 761 mmHg 95%
    08:00 +28°C° 1,2 mm 4 m/s 761 mmHg 92%
    09:00 +29°C° 1,2 mm 4 m/s 762 mmHg 88%
    10:00 +30°C° 0,9 mm 4 m/s 761 mmHg 83%
    11:00 +32°C° 0,9 mm 4 m/s 761 mmHg 78%
    12:00 +33°C° 0,9 mm 3 m/s 761 mmHg 73%
    13:00 +33°C° 0,3 mm 4 m/s 761 mmHg 69%
    14:00 +33°C° 0,3 mm 4 m/s 760 mmHg 66%
    15:00 +34°C° 0,3 mm 4 m/s 759 mmHg 63%
    16:00 +33°C° 0,4 mm 4 m/s 759 mmHg 69%
    17:00 +32°C° 0,4 mm 4 m/s 759 mmHg 75%
    18:00 +30°C° 0,4 mm 4 m/s 759 mmHg 81%
    19:00 +29°C° 0,7 mm 4 m/s 760 mmHg 86%
    20:00 +28°C° 0,7 mm 4 m/s 760 mmHg 91%
    21:00 +27°C° 0,7 mm 4 m/s 761 mmHg 96%
    22:00 +27°C° 0,6 mm 4 m/s 761 mmHg 97%
    23:00 +27°C° 0,6 mm 4 m/s 761 mmHg 98%

    19 Julho, Quinta-feira

    Tempo Temperatura Precipitação Vento Pressão Humidade
    00:00 +26°C° 0,6 mm 4 m/s 760 mmHg 98%
    01:00 +26°C° 0,6 mm 4 m/s 760 mmHg 98%
    02:00 +26°C° 0,6 mm 4 m/s 760 mmHg 98%
    03:00 +26°C° 0,6 mm 4 m/s 759 mmHg 99%
    04:00 +26°C° 0,4 mm 4 m/s 760 mmHg 98%
    05:00 +26°C° 0,4 mm 4 m/s 760 mmHg 98%
    06:00 +26°C° 0,4 mm 4 m/s 760 mmHg 98%
    07:00 +28°C° 0,1 mm 4 m/s 760 mmHg 92%
    08:00 +29°C° 0,1 mm 5 m/s 760 mmHg 87%
    09:00 +32°C° 0,1 mm 5 m/s 761 mmHg 81%
    10:00 +33°C° 0,1 mm 5 m/s 760 mmHg 72%
    11:00 +35°C° 0,1 mm 5 m/s 760 mmHg 64%
    12:00 +36°C° 0,1 mm 5 m/s 760 mmHg 55%
    13:00 +36°C° 0 mm 5 m/s 760 mmHg 57%
    14:00 +35°C° 0 mm 5 m/s 759 mmHg 58%
    15:00 +35°C° 0 mm 5 m/s 759 mmHg 59%
    16:00 +34°C° 0 mm 5 m/s 759 mmHg 65%
    17:00 +32°C° 0 mm 4 m/s 759 mmHg 72%
    18:00 +30°C° 0 mm 4 m/s 759 mmHg 78%
    19:00 +29°C° 0 mm 4 m/s 760 mmHg 84%
    20:00 +28°C° 0 mm 5 m/s 760 mmHg 89%
    21:00 +27°C° 0 mm 5 m/s 760 mmHg 94%
    22:00 +27°C° 0 mm 5 m/s 760 mmHg 95%
    23:00 +27°C° 0 mm 5 m/s 760 mmHg 95%

    20 Julho, Sexta-feira

    Tempo Temperatura Precipitação Vento Pressão Humidade
    00:00 +27°C° 0 mm 5 m/s 760 mmHg 96%
    01:00 +27°C° 0 mm 5 m/s 760 mmHg 96%
    02:00 +27°C° 0 mm 5 m/s 760 mmHg 96%
    03:00 +27°C° 0 mm 5 m/s 759 mmHg 96%
    04:00 +27°C° 0 mm 5 m/s 759 mmHg 96%
    05:00 +27°C° 0 mm 5 m/s 760 mmHg 96%
    06:00 +27°C° 0 mm 4 m/s 760 mmHg 96%
    07:00 +29°C° 0 mm 4 m/s 760 mmHg 86%
    08:00 +32°C° 0 mm 5 m/s 760 mmHg 77%
    09:00 +33°C° 0 mm 5 m/s 761 mmHg 67%
    10:00 +34°C° 0 mm 4 m/s 761 mmHg 62%
    11:00 +35°C° 0 mm 4 m/s 760 mmHg 57%
    12:00 +36°C° 0 mm 4 m/s 760 mmHg 52%
    13:00 +36°C° 0 mm 4 m/s 760 mmHg 52%
    14:00 +36°C° 0 mm 4 m/s 759 mmHg 53%
    15:00 +35°C° 0 mm 4 m/s 759 mmHg 54%
    16:00 +34°C° 0 mm 4 m/s 759 mmHg 61%
    17:00 +33°C° 0 mm 4 m/s 759 mmHg 69%
    18:00 +30°C° 0 mm 4 m/s 760 mmHg 76%
    19:00 +29°C° 0 mm 4 m/s 760 mmHg 82%
    20:00 +28°C° 0 mm 5 m/s 761 mmHg 88%
    21:00 +27°C° 0 mm 5 m/s 761 mmHg 93%
    22:00 +27°C° 0,1 mm 5 m/s 761 mmHg 94%
    23:00 +27°C° 0,1 mm 5 m/s 761 mmHg 95%

    21 Julho, Sábado

    Tempo Temperatura Precipitação Vento Pressão Humidade
    00:00 +27°C° 0,1 mm 5 m/s 760 mmHg 96%
    01:00 +26°C° 1,1 mm 5 m/s 760 mmHg 97%
    02:00 +26°C° 1,1 mm 5 m/s 760 mmHg 97%
    03:00 +26°C° 1,1 mm 5 m/s 759 mmHg 98%
    04:00 +26°C° 2,3 mm 5 m/s 759 mmHg 98%
    05:00 +26°C° 2,3 mm 5 m/s 760 mmHg 98%
    06:00 +26°C° 2,3 mm 5 m/s 760 mmHg 98%
    07:00 +27°C° 2,8 mm 5 m/s 760 mmHg 97%
    08:00 +28°C° 2,8 mm 5 m/s 760 mmHg 95%
    09:00 +29°C° 2,8 mm 5 m/s 761 mmHg 94%
    10:00 +29°C° 1,3 mm 5 m/s 761 mmHg 93%
    11:00 +29°C° 1,3 mm 5 m/s 761 mmHg 91%
    12:00 +30°C° 1,3 mm 4 m/s 760 mmHg 90%
    13:00 +30°C° 0,8 mm 4 m/s 760 mmHg 90%
    14:00 +30°C° 0,8 mm 4 m/s 760 mmHg 90%
    15:00 +30°C° 0,8 mm 4 m/s 759 mmHg 91%
    16:00 +29°C° 0,9 mm 4 m/s 760 mmHg 92%
    17:00 +29°C° 0,9 mm 4 m/s 760 mmHg 93%
    18:00 +28°C° 0,9 mm 4 m/s 760 mmHg 94%
    19:00 +28°C° 0,6 mm 4 m/s 760 mmHg 96%
    20:00 +27°C° 0,6 mm 4 m/s 761 mmHg 97%
    21:00 +27°C° 0,6 mm 5 m/s 761 mmHg 98%
    22:00 +27°C° 0,3 mm 5 m/s 761 mmHg 98%
    23:00 +27°C° 0,3 mm 5 m/s 761 mmHg 98%
    Mostrar mais